Change the Weather History Date:

Wednesday, May 1, 2013

  Actual Average Record
Temperature  
Mean Temperature 61 °F -  
Max Temperature 80 °F - - ()
Min Temperature 42 °F - - ()
Degree Days  
Heating Degree Days 4    
Growing Degree Days 11 (Base 50)    
Moisture  
Dew Point 43 °F    
Average Humidity 58    
Maximum Humidity 93    
Minimum Humidity 20    
Precipitation  
Precipitation 0.00 in - - ()
Sea Level Pressure  
Sea Level Pressure 30.37 in    
Wind  
Wind Speed 3 mph ()    
Max Wind Speed 10 mph    
Max Gust Speed 18 mph    
T = Trace of Precipitation, MM = Missing Value Source: Averaged Metar Reports

Daily Weather History Graph

Daily Weather History Graph

Search for Another Location

Airport or City:

Trip Planner

Search our weather history database for the weather conditions in past years. The results will help you decide how hot, cold, wet, or windy it might be!

Date:

Astronomy

May. 01, 2013 Rise Set
Actual Time 5:34 AM EDT 8:03 PM EDT
Civil Twilight 4:59 AM EDT 8:37 PM EDT
Nautical Twilight 4:16 AM EDT 9:20 PM EDT
Astronomical Twilight 3:27 AM EDT 10:10 PM EDT
Moon 1:11 AM EDT (5/1) 11:09 AM EDT (5/1)
Length of Visible Light 15h 37m
Length of Day
14h 28m
Waning Gibbous, 59% of the Moon is Illuminated
May 1
Waning Gibbous
May 2
Last Quarter
May 9
New
May 18
First Quarter
May 25
Full

Hourly Weather History & Observations

Time (EDT) Temp. Dew Point Humidity Pressure Visibility Wind Dir Wind Speed Gust Speed Precip Events Conditions
12:00 AM 45.1 °F 42.3 °F 90% 30.30 in - Calm Calm - N/A   Unknown
1:00 AM 44.1 °F 42.1 °F 93% 30.32 in - Calm Calm - N/A   Unknown
2:00 AM 45 °F 42 °F 86% 30.33 in - Calm Calm - -  
2:00 AM 44.6 °F 42.1 °F 91% 30.33 in - Calm Calm - N/A   Unknown
3:00 AM 46.6 °F 43.9 °F 90% 30.35 in - Calm Calm - N/A   Unknown
4:00 AM 44.4 °F 41.7 °F 90% 30.36 in - Calm Calm - N/A   Unknown
5:00 AM 45.3 °F 42.1 °F 88% 30.37 in - Calm Calm - N/A   Unknown
7:00 AM 46.9 °F 43.7 °F 88% 30.40 in - Calm Calm - N/A   Unknown
8:00 AM 49 °F 44 °F 78% 30.42 in - Calm Calm - -  
8:00 AM 48.7 °F 44.2 °F 84% 30.42 in - Calm Calm - N/A   Unknown
9:00 AM 57.0 °F 45.9 °F 66% 30.42 in - South 4.6 mph - N/A   Unknown
10:00 AM 63.7 °F 44.8 °F 50% 30.42 in - South 5.8 mph - N/A   Unknown
11:00 AM 69.4 °F 45.0 °F 41% 30.40 in - South 6.9 mph - N/A   Unknown
12:00 PM 73.8 °F 45.5 °F 36% 30.38 in - South 9.2 mph - N/A   Unknown
1:00 PM 74.5 °F 42.6 °F 32% 30.36 in - South 10.4 mph 18.4 mph N/A   Unknown
2:00 PM 76 °F 42 °F 20% 30.35 in - South 9.2 mph - -  
2:00 PM 76.3 °F 42.4 °F 30% 30.35 in - South 9.2 mph - N/A   Unknown
3:00 PM 78.6 °F 42.6 °F 28% 30.34 in - South 9.2 mph - N/A   Unknown
4:00 PM 78.1 °F 41.5 °F 27% 30.35 in - South 9.2 mph - N/A   Unknown
5:00 PM 77.9 °F 41.4 °F 27% 30.35 in - South 8.1 mph - N/A   Unknown
7:00 PM 74.7 °F 41.4 °F 30% 30.36 in - South 9.2 mph - N/A   Unknown
8:00 PM 67 °F 42 °F 29% 30.37 in - SSE 3.5 mph - -  
8:00 PM 67.1 °F 41.9 °F 40% 30.37 in - SSE 3.5 mph - N/A   Unknown
9:00 PM 61.3 °F 43.0 °F 51% 30.39 in - SSE 3.5 mph - N/A   Unknown
10:00 PM 58.5 °F 43.7 °F 58% 30.39 in - SSE 2.3 mph - N/A   Unknown
11:00 PM 54.0 °F 43.5 °F 68% 30.39 in - SSE 1.2 mph - N/A   Unknown